Weather History for Rantoul, IL

Change the Weather History Date:

Thursday, May 16, 2013

  Actual Average (KCMI) Record (KCMI)
Temperature  
Mean Temperature 74 °F 63 °F  
Max Temperature 84 °F 75 °F 95 °F (2001)
Min Temperature 65 °F 51 °F 34 °F (1997)
Degree Days  
Heating Degree Days 0 5  
Month to date heating degree days 98  
Since 1 July heating degree days 5762  
Cooling Degree Days 10 3  
Month to date cooling degree days 26  
Year to date cooling degree days 37  
Growing Degree Days 24 (Base 50)    
Moisture  
Dew Point 54 °F    
Average Humidity 53    
Maximum Humidity 78    
Minimum Humidity 25    
Precipitation  
Precipitation 0.00 in 0.14 in 0.75 in (2002)
Month to date precipitation 2.43  
Year to date precipitation 13.04  
Sea Level Pressure  
Sea Level Pressure 29.91 in    
Wind  
Wind Speed 6 mph (WNW)    
Max Wind Speed 12 mph    
Max Gust Speed 20 mph    
Visibility 10 miles    
Events Rain , Thunderstorm    
T = Trace of Precipitation, MM = Missing Value Source: NWS Daily Summary

Daily Weather History Graph

Daily Weather History Graph

Search for Another Location

Airport:

Trip Planner

Search our weather history database for the weather conditions in past years. The results will help you decide how hot, cold, wet, or windy it might be!

Date:

Astronomy

May. 16, 2013 Rise Set
Actual Time 5:35 AM CDT 8:03 PM CDT
Civil Twilight 5:04 AM CDT 8:34 PM CDT
Nautical Twilight 4:26 AM CDT 9:12 PM CDT
Astronomical Twilight 3:43 AM CDT 9:55 PM CDT
Moon 11:08 AM CDT (5/16) 12:23 AM CDT (5/16)
Length of Visible Light 15h 29m
Length of Day
14h 27m
Waxing Crescent, 36% of the Moon is Illuminated
May 16
Waxing Crescent
May 17
First Quarter
May 24
Full
May 31
Last Quarter
Jun 8
New

Hourly Weather History & Observations

Time (CDT) Temp. Heat Index Dew Point Humidity Pressure Visibility Wind Dir Wind Speed Gust Speed Precip Events Conditions
12:15 AM 72.7 °F - 59.0 °F 62% 29.85 in 10.0 mi WSW 6.9 mph - N/A Thunderstorm Thunderstorm
12:35 AM 71.6 °F - 59.9 °F 66% 29.86 in 10.0 mi WNW 5.8 mph - N/A Thunderstorm Thunderstorm
12:55 AM 71.2 °F - 56.1 °F 59% 29.88 in 10.0 mi NNW 10.4 mph 19.6 mph N/A Thunderstorm Thunderstorm
1:35 AM 71.1 °F - 60.8 °F 70% 29.86 in 10.0 mi WNW 6.9 mph - N/A Rain , Thunderstorm Light Thunderstorms and Rain
1:55 AM 69.6 °F - 61.2 °F 74% 29.84 in 10.0 mi WNW 9.2 mph - N/A Rain Light Rain
2:15 AM 69.8 °F - 62.1 °F 76% 29.85 in 10.0 mi WNW 5.8 mph - N/A   Light Drizzle
2:35 AM 69.6 °F - 61.2 °F 74% 29.86 in 10.0 mi WNW 6.9 mph - N/A   Clear
2:55 AM 68.0 °F - 60.8 °F 78% 29.85 in 10.0 mi WNW 4.6 mph - N/A   Clear
3:15 AM 67.6 °F - 60.3 °F 77% 29.86 in 10.0 mi NW 8.1 mph - N/A   Scattered Clouds
3:35 AM 68.7 °F - 57.6 °F 67% 29.86 in 10.0 mi NW 6.9 mph - N/A   Scattered Clouds
4:15 AM 69.4 °F - 53.4 °F 57% 29.87 in 10.0 mi NNW 9.2 mph - N/A   Clear
4:35 AM 69.6 °F - 51.8 °F 53% 29.87 in 10.0 mi North 8.1 mph - N/A   Clear
4:55 AM 68.4 °F - 53.1 °F 58% 29.88 in 10.0 mi NNW 5.8 mph - N/A   Clear
5:35 AM 67.3 °F - 54.0 °F 62% 29.88 in 10.0 mi NNW 3.5 mph - N/A   Clear
5:55 AM 66.2 °F - 54.5 °F 66% 29.89 in 10.0 mi NNW 4.6 mph - N/A   Scattered Clouds
6:15 AM 65.8 °F - 55.4 °F 69% 29.88 in 10.0 mi North 4.6 mph - N/A   Scattered Clouds
6:35 AM 66.7 °F - 53.6 °F 63% 29.89 in 10.0 mi North 6.9 mph - N/A   Scattered Clouds
6:55 AM 66.2 °F - 54.7 °F 66% 29.91 in 10.0 mi Calm Calm - N/A   Scattered Clouds
7:15 AM 66.7 °F - 54.9 °F 66% 29.91 in 10.0 mi North 4.6 mph - N/A   Scattered Clouds
7:35 AM 66.7 °F - 55.0 °F 66% 29.92 in 10.0 mi NE 5.8 mph - N/A   Clear
7:55 AM 66.4 °F - 55.6 °F 68% 29.93 in 10.0 mi North 4.6 mph - N/A   Clear
8:15 AM 67.6 °F - 54.9 °F 64% 29.93 in 10.0 mi Calm Calm - N/A   Clear
8:35 AM 69.1 °F - 54.9 °F 60% 29.94 in 10.0 mi Calm Calm - N/A   Clear
9:15 AM 70.3 °F - 57.2 °F 63% 29.95 in 10.0 mi North 5.8 mph - N/A   Clear
9:35 AM 70.7 °F - 57.7 °F 63% 29.94 in 10.0 mi North 5.8 mph - N/A   Clear
10:15 AM 75.6 °F - 54.7 °F 48% 29.94 in 10.0 mi NNE 8.1 mph - N/A   Clear
10:35 AM 77.2 °F - 54.5 °F 45% 29.94 in 10.0 mi ENE 6.9 mph - N/A   Clear
10:55 AM 78.6 °F - 52.7 °F 40% 29.94 in 10.0 mi East 3.5 mph - N/A   Clear
11:15 AM 79.2 °F - 50.7 °F 37% 29.94 in 10.0 mi NE 3.5 mph - N/A   Clear
11:35 AM 78.8 °F - 53.8 °F 42% 29.95 in 10.0 mi North 5.8 mph - N/A   Clear
11:55 AM 79.2 °F - 52.7 °F 40% 29.94 in 10.0 mi NE 5.8 mph - N/A   Clear
12:36 PM 80.6 °F - 46.4 °F 30% 29.94 in 10.0 mi NE 4.6 mph - N/A   Clear
12:56 PM 82.4 °F - 44.6 °F 26% 29.94 in 10.0 mi Calm Calm - N/A   Clear
1:15 PM 82.0 °F - 45.1 °F 27% 29.93 in 10.0 mi Calm Calm - N/A   Clear
1:56 PM 82.4 °F - 44.6 °F 26% 29.93 in 10.0 mi East 3.5 mph - N/A   Clear
2:16 PM 84.2 °F - 44.6 °F 25% 29.93 in 10.0 mi SSW 8.1 mph - N/A   Clear
2:36 PM 84.2 °F - 44.6 °F 25% 29.92 in 10.0 mi South 10.4 mph - N/A   Clear
3:16 PM 84.2 °F - 46.4 °F 27% 29.91 in 10.0 mi SSW 10.4 mph - N/A   Clear
3:36 PM 82.4 °F - 46.4 °F 28% 29.91 in 10.0 mi SSW 6.9 mph - N/A   Clear
3:56 PM 84.2 °F - 46.4 °F 27% 29.90 in 10.0 mi WSW 8.1 mph - N/A   Clear
4:16 PM 84.2 °F - 46.4 °F 27% 29.90 in 10.0 mi SSW 3.5 mph - N/A   Clear
4:38 PM 84.2 °F - 50.0 °F 30% 29.89 in 10.0 mi SSW 6.9 mph - N/A   Clear
5:35 PM 83.5 °F 82.5 °F 55.6 °F 38% 29.90 in 10.0 mi SSW 11.5 mph - N/A   Clear
5:55 PM 82.4 °F 81.6 °F 54.1 °F 38% 29.89 in 10.0 mi SSW 9.2 mph - N/A   Scattered Clouds
6:16 PM 82.4 °F - 51.8 °F 35% 29.90 in 10.0 mi SW 10.4 mph - N/A   Scattered Clouds
6:55 PM 82.4 °F 81.4 °F 53.4 °F 37% 29.91 in 10.0 mi SW 10.4 mph - N/A   Clear
7:15 PM 81.3 °F 80.7 °F 53.6 °F 38% 29.91 in 10.0 mi SW 9.2 mph - N/A   Clear
8:15 PM 77.0 °F - 56.7 °F 49% 29.93 in 10.0 mi SSW 8.1 mph - N/A   Mostly Cloudy
8:35 PM 75.7 °F - 57.9 °F 54% 29.93 in 10.0 mi SW 6.9 mph - N/A   Scattered Clouds
8:55 PM 75.0 °F - 58.1 °F 56% 29.93 in 10.0 mi SSW 6.9 mph - N/A   Scattered Clouds
9:15 PM 73.8 °F - 58.5 °F 59% 29.94 in 10.0 mi SSW 4.6 mph - N/A   Scattered Clouds
9:35 PM 72.5 °F - 59.2 °F 63% 29.95 in 10.0 mi SSW 3.5 mph - N/A   Scattered Clouds
9:55 PM 72.5 °F - 59.5 °F 64% 29.96 in 10.0 mi SSW 4.6 mph - N/A   Scattered Clouds
10:55 PM 71.1 °F - 60.1 °F 68% 29.97 in 10.0 mi SW 5.8 mph - N/A   Clear
11:15 PM 70.7 °F - 60.3 °F 69% 29.97 in 10.0 mi Calm Calm - N/A   Scattered Clouds
11:35 PM 70.7 °F - 59.9 °F 69% 29.97 in 10.0 mi Calm Calm - N/A   Scattered Clouds
11:55 PM 69.8 °F - 59.7 °F 70% 29.97 in 10.0 mi Calm Calm - N/A   Clear